EW4443 Weather Reports


time (UTC)temp
F
wind
direction
speed
knots
gust
knots
rain 1hr
in
rain 24hr
in
rain mn
in
humidity
%
barometer
mb
20260906100508 84 180 0.0 0.0 0.00 0.00 0.00 49 1009.3
20260906100240 84 180 0.0 0.0 0.00 0.00 0.00 49 1009.3
20260906095509 84 180 0.0 0.0 0.00 0.00 0.00 49 1009.0
20260906095009 84 180 0.0 0.0 0.00 0.00 0.00 49 1009.0
20260906094509 84 180 0.0 0.0 0.00 0.00 0.00 48 1009.0
20260906094013 84 180 0.0 0.0 0.00 0.00 0.00 46 1009.0
20260906094009 84 180 0.0 0.0 0.00 0.00 0.00 46 1009.0
20260906093008 84 180 0.0 0.0 0.00 0.00 0.00 46 1009.3
20260906092739 84 180 0.0 0.0 0.00 0.00 0.00 46 1009.0
20260906092239 85 180 0.0 0.0 0.00 0.00 0.00 45 1009.0
20260906091509 85 203 0.0 0.0 0.00 0.00 0.00 46 1009.0
20260906091008 85 45 0.0 0.0 0.00 0.00 0.00 46 1009.0
20260906090509 85 45 0.0 0.0 0.00 0.00 0.00 46 1009.0
20260906090009 85 45 0.0 0.9 0.00 0.00 0.00 45 1009.0
20260906085509 85 45 0.0 0.9 0.00 0.00 0.00 45 1009.0
20260906085009 85 45 0.0 0.9 0.00 0.00 0.00 45 1009.0
20260906084739 85 23 0.0 0.0 0.00 0.00 0.00 43 1009.0
20260906084008 85 338 0.0 0.0 0.00 0.00 0.00 44 1009.0
20260906083738 85 338 0.0 0.0 0.00 0.00 0.00 45 1009.3
20260906083007 86 338 0.0 0.0 0.00 0.00 0.00 45 1009.0
20260906082509 86 338 0.0 0.0 0.00 0.00 0.00 45 1009.0
20260906082009 86 338 0.0 0.0 0.00 0.00 0.00 43 1009.3
20260906081509 86 338 0.0 0.0 0.00 0.00 0.00 45 1009.3
20260906081008 86 338 0.0 0.0 0.00 0.00 0.00 45 1009.3
20260906080509 86 338 0.0 0.0 0.00 0.00 0.00 44 1009.3
20260906080008 86 338 0.0 0.0 0.00 0.00 0.00 44 1009.3
20260906075509 86 338 0.0 0.0 0.00 0.00 0.00 43 1009.3
20260906074950 86 0 0.0 0.0 0.00 0.00 0.00 43 1009.3
20260906074721 86 23 0.0 0.0 0.00 0.00 0.00 41 1009.0
20260906073951 87 23 0.0 0.0 0.00 0.00 0.00 41 1009.3
20260906073450 87 23 0.0 0.0 0.00 0.00 0.00 40 1009.3
20260906072950 87 23 0.0 0.0 0.00 0.00 0.00 43 1009.7
20260906072450 87 23 0.0 0.0 0.00 0.00 0.00 44 1009.7
20260906071950 87 23 0.0 0.0 0.00 0.00 0.00 43 1009.7
20260906071448 87 315 0.0 0.0 0.00 0.00 0.00 43 1009.3
20260906071220 87 45 0.0 0.0 0.00 0.00 0.00 43 1009.3
20260906070449 87 45 0.0 0.0 0.00 0.00 0.00 43 1009.3
20260906065949 88 45 0.0 0.0 0.00 0.00 0.00 41 1009.3
20260906065450 88 45 0.0 0.0 0.00 0.00 0.00 41 1009.3
20260906064950 88 45 0.0 0.0 0.00 0.00 0.00 41 1009.3
20260906064451 88 338 0.0 0.0 0.00 0.00 0.00 40 1009.7
20260906064221 88 338 0.0 0.0 0.00 0.00 0.00 41 1009.7
20260906063450 88 23 0.0 0.0 0.00 0.00 0.00 40 1009.7
20260906062948 88 23 0.0 0.0 0.00 0.00 0.00 40 1009.7
20260906062449 89 338 0.0 0.0 0.00 0.00 0.00 40 1009.7
20260906061949 89 315 0.0 0.0 0.00 0.00 0.00 39 1009.7
20260906061449 89 270 0.0 0.0 0.00 0.00 0.00 40 1009.7
20260906061221 89 270 0.0 0.0 0.00 0.00 0.00 40 1009.7
20260906060450 89 270 0.0 0.0 0.00 0.00 0.00 40 1009.7
20260906055950 89 23 0.0 0.0 0.00 0.00 0.00 39 1009.7
20260906055450 89 23 0.0 0.0 0.00 0.00 0.00 39 1009.7
20260906054950 90 45 0.0 0.0 0.00 0.00 0.00 37 1009.7
20260906054451 90 45 0.0 0.0 0.00 0.00 0.00 39 1009.7
20260906053950 90 23 0.0 0.0 0.00 0.00 0.00 39 1009.7
20260906053720 90 338 0.0 0.0 0.00 0.00 0.00 37 1009.3
20260906052949 90 338 0.0 0.0 0.00 0.00 0.00 37 1009.7
20260906052719 90 338 0.0 0.0 0.00 0.00 0.00 37 1009.3
20260906051950 91 0 0.0 0.0 0.00 0.00 0.00 37 1009.7
20260906051451 91 45 0.0 0.0 0.00 0.00 0.00 37 1009.7
20260906050950 91 45 0.0 0.0 0.00 0.00 0.00 37 1009.7
20260906050450 91 45 0.0 0.0 0.00 0.00 0.00 35 1009.7
20260906045950 91 45 0.0 1.7 0.00 0.00 0.00 35 1009.7
20260906045451 91 0 0.0 1.7 0.00 0.00 0.00 35 1009.7
20260906044949 92 315 0.0 0.9 0.00 0.00 0.00 35 1009.7
20260906044449 92 315 0.0 0.0 0.00 0.00 0.00 35 1009.7
20260906043949 92 315 0.0 0.0 0.00 0.00 0.00 35 1009.3
20260906043450 92 315 0.0 0.0 0.00 0.00 0.00 34 1010.0
20260906042950 92 315 0.0 0.9 0.00 0.00 0.00 34 1009.7
20260906042450 92 315 0.0 1.7 0.00 0.00 0.00 32 1009.7
20260906041950 92 293 0.0 2.6 0.00 0.00 0.00 32 1009.7
20260906041454 93 338 0.0 3.5 0.00 0.00 0.00 32 1009.7
20260906041450 93 23 0.0 2.6 0.00 0.00 0.00 32 1009.7
20260906041207 93 338 0.0 3.5 0.00 0.00 0.00 32 1010.0
20260906035948 93 0 0.0 3.5 0.00 0.00 0.00 32 1010.0
20260906035449 93 45 0.0 3.5 0.00 0.00 0.00 32 1009.7
20260906034949 93 315 0.0 4.3 0.00 0.00 0.00 32 1009.7
20260906034450 93 293 0.9 4.3 0.00 0.00 0.00 31 1009.7
20260906033950 93 338 0.9 2.6 0.00 0.00 0.00 31 1009.7
20260906033450 94 23 0.9 4.3 0.00 0.00 0.00 30 1009.3
20260906032950 94 338 0.9 4.3 0.00 0.00 0.00 31 1009.3
20260906032724 94 338 0.9 6.1 0.00 0.00 0.00 30 1009.0
20260906032450 94 338 0.9 6.1 0.00 0.00 0.00 30 1009.3
20260906031450 94 23 0.9 6.1 0.00 0.00 0.00 30 1009.0
20260906030949 94 338 0.9 5.2 0.00 0.00 0.00 30 1009.0
20260906030449 94 0 0.9 4.3 0.00 0.00 0.00 30 1009.0
20260906025949 94 45 0.9 5.2 0.00 0.00 0.00 30 1009.0
20260906025450 95 45 0.9 5.2 0.00 0.00 0.00 30 1009.0
20260906024950 95 203 0.9 4.3 0.00 0.00 0.00 30 1009.0
20260906024449 95 23 0.9 5.2 0.00 0.00 0.00 30 1009.0
20260906023950 95 0 0.9 5.2 0.00 0.00 0.00 29 1009.0
20260906023448 95 270 0.9 4.3 0.00 0.00 0.00 30 1009.0
20260906022950 95 338 0.9 4.3 0.00 0.00 0.00 30 1008.7
20260906022449 96 338 0.9 4.3 0.00 0.00 0.00 30 1009.0
20260906021948 96 315 0.9 4.3 0.00 0.00 0.00 30 1008.7
20260906021449 96 270 0.9 6.1 0.00 0.00 0.00 29 1008.7
20260906020950 96 270 0.9 6.1 0.00 0.00 0.00 30 1008.7
20260906020449 96 270 0.9 6.1 0.00 0.00 0.00 27 1008.7
20260906015948 97 270 0.9 6.1 0.00 0.00 0.00 27 1008.7
20260906015449 97 45 0.9 5.2 0.00 0.00 0.00 27 1009.0
20260906014948 97 270 0.9 6.1 0.00 0.00 0.00 27 1009.0
20260906014447 97 270 0.9 6.1 0.00 0.00 0.00 27 1008.7
20260906013948 98 338 0.9 6.1 0.00 0.00 0.00 27 1009.0
20260906013718 98 45 0.9 6.1 0.00 0.00 0.00 27 1008.7
20260906012949 98 270 0.9 7.0 0.00 0.00 0.00 27 1008.7
20260906012449 98 338 0.9 7.0 0.00 0.00 0.00 27 1008.7
20260906011949 99 68 0.9 7.0 0.00 0.00 0.00 27 1008.7
20260906011449 99 293 1.7 7.8 0.00 0.00 0.00 27 1008.7
20260906010948 99 315 1.7 7.8 0.00 0.00 0.00 27 1008.7
20260906010448 100 338 0.9 7.0 0.00 0.00 0.00 25 1008.7
20260906005947 100 0 0.9 8.7 0.00 0.00 0.00 25 1008.7
20260906005447 100 338 1.7 8.7 0.00 0.00 0.00 25 1008.7
20260906004947 101 270 1.7 7.0 0.00 0.00 0.00 25 1008.7
20260906004448 101 270 0.9 7.0 0.00 0.00 0.00 25 1008.7
20260906003948 101 338 1.7 7.0 0.00 0.00 0.00 25 1008.7
20260906003719 101 338 1.7 7.8 0.00 0.00 0.00 25 1008.7
20260906002948 102 0 1.7 7.8 0.00 0.00 0.00 25 1008.7
20260906002719 102 0 1.7 7.8 0.00 0.00 0.00 25 1008.7
20260906001947 102 338 1.7 7.8 0.00 0.00 0.00 25 1008.7
20260906001447 102 270 0.9 7.0 0.00 0.00 0.00 25 1008.7
20260906000946 102 293 1.7 8.7 0.00 0.00 0.00 25 1008.3
20260906000448 103 0 1.7 8.7 0.00 0.00 0.00 25 1008.3
20260906000221 103 23 1.7 7.0 0.00 0.00 0.00 25 1008.3
20260905235718 103 270 1.7 7.0 0.00 0.00 0.00 25 1008.3
20260905235218 103 23 1.7 6.1 0.00 0.00 0.00 25 1008.7
20260905234447 103 338 0.9 7.0 0.00 0.00 0.00 25 1008.7
20260905233947 104 248 0.9 7.0 0.00 0.00 0.00 25 1008.7
20260905233717 104 248 0.9 7.0 0.00 0.00 0.00 25 1008.7
20260905232946 104 113 1.7 7.0 0.00 0.00 0.00 25 1008.7
20260905232446 104 338 0.9 7.0 0.00 0.00 0.00 27 1008.7
20260905231947 104 90 1.7 7.0 0.00 0.00 0.00 27 1008.7
20260905231447 104 338 0.9 7.0 0.00 0.00 0.00 27 1008.7
20260905230947 104 338 0.9 7.0 0.00 0.00 0.00 27 1008.7
20260905230447 104 0 1.7 7.0 0.00 0.00 0.00 27 1008.3
20260905225947 104 338 1.7 7.0 0.00 0.00 0.00 27 1008.7
20260905225447 104 270 1.7 7.0 0.00 0.00 0.00 27 1008.3
20260905224946 104 248 1.7 7.0 0.00 0.00 0.00 27 1008.7
20260905224446 104 0 0.9 4.3 0.00 0.00 0.00 29 1008.7
20260905223946 104 338 0.9 4.3 0.00 0.00 0.00 29 1008.7
20260905223445 104 45 0.9 5.2 0.00 0.00 0.00 29 1008.7
20260905223217 103 23 0.9 5.2 0.00 0.00 0.00 29 1008.7
20260905222446 103 0 0.9 7.0 0.00 0.00 0.00 29 1008.7
20260905221946 103 338 0.9 7.0 0.00 0.00 0.00 29 1009.0
20260905221446 103 23 0.9 4.3 0.00 0.00 0.00 27 1009.0
20260905220947 103 270 0.9 5.2 0.00 0.00 0.00 29 1009.0
20260905220445 103 45 0.9 6.1 0.00 0.00 0.00 29 1009.3
20260905215944 103 180 0.9 6.1 0.00 0.00 0.00 27 1009.0
20260905215445 103 270 1.7 6.1 0.00 0.00 0.00 29 1009.0
20260905214945 103 293 0.9 6.1 0.00 0.00 0.00 29 1009.3
20260905214446 103 270 0.0 4.3 0.00 0.00 0.00 30 1009.3
20260905213946 103 338 0.9 7.8 0.00 0.00 0.00 30 1009.3
20260905213446 103 338 0.9 7.8 0.00 0.00 0.00 30 1009.3
20260905212946 103 338 0.9 5.2 0.00 0.00 0.00 29 1009.7
20260905212446 103 23 0.9 7.0 0.00 0.00 0.00 30 1009.3
20260905211944 102 270 0.9 7.0 0.00 0.00 0.00 30 1009.7
20260905211444 102 270 0.9 6.1 0.00 0.00 0.00 30 1009.7
20260905210945 102 315 0.9 6.1 0.00 0.00 0.00 30 1009.7
20260905210444 102 270 0.9 5.2 0.00 0.00 0.00 29 1010.0
20260905205946 102 225 0.9 4.3 0.00 0.00 0.00 29 1010.0
20260905205446 102 270 0.0 5.2 0.00 0.00 0.00 30 1010.0
20260905205217 102 45 0.9 5.2 0.00 0.00 0.00 30 1010.5
20260905204445 101 315 0.9 5.2 0.00 0.00 0.00 30 1010.0
20260905203946 102 158 0.9 7.0 0.00 0.00 0.00 29 1010.5
20260905203444 102 293 0.9 7.0 0.00 0.00 0.00 29 1010.5
20260905202944 102 293 0.9 4.3 0.00 0.00 0.00 30 1010.5
20260905202714 102 0 0.9 5.2 0.00 0.00 0.00 30 1010.8
20260905201944 101 0 0.9 5.2 0.00 0.00 0.00 31 1010.8
20260905201445 101 45 0.0 3.5 0.00 0.00 0.00 31 1010.8
20260905200944 101 203 0.0 3.5 0.00 0.00 0.00 30 1010.8
20260905200445 101 203 0.9 4.3 0.00 0.00 0.00 30 1010.8
20260905200215 101 135 0.9 4.3 0.00 0.00 0.00 30 1010.8
20260905195445 101 68 0.9 3.5 0.00 0.00 0.00 30 1010.8
20260905195215 101 180 0.9 4.3 0.00 0.00 0.00 29 1011.1
20260905194444 101 158 0.9 4.3 0.00 0.00 0.00 29 1011.1
20260905193944 101 293 0.9 3.5 0.00 0.00 0.00 29 1011.1
20260905193444 101 270 0.9 5.2 0.00 0.00 0.00 29 1011.1
20260905192945 101 315 0.9 5.2 0.00 0.00 0.00 30 1011.5
20260905192445 101 68 0.9 4.3 0.00 0.00 0.00 30 1011.8
20260905191945 101 270 0.9 3.5 0.00 0.00 0.00 30 1011.5
20260905191444 101 338 0.9 3.5 0.00 0.00 0.00 30 1011.5
20260905190945 101 45 0.9 3.5 0.00 0.00 0.00 31 1011.5
20260905190444 100 90 0.0 3.5 0.00 0.00 0.00 31 1011.8
20260905185944 100 23 0.0 3.5 0.00 0.00 0.00 31 1011.8
20260905185444 100 45 0.0 2.6 0.00 0.00 0.00 32 1011.8
20260905184944 99 23 0.0 1.7 0.00 0.00 0.00 31 1011.8
20260905184444 99 45 0.0 4.3 0.00 0.00 0.00 31 1011.8
20260905183945 99 203 0.9 4.3 0.00 0.00 0.00 30 1012.1
20260905183447 99 180 0.0 3.5 0.00 0.00 0.00 30 1012.1
20260905182944 99 90 0.0 2.6 0.00 0.00 0.00 30 1012.1
20260905182449 99 315 0.0 1.7 0.00 0.00 0.00 31 1012.1
20260905181944 99 248 0.0 1.7 0.00 0.00 0.00 30 1012.5
20260905181715 99 225 0.0 2.6 0.00 0.00 0.00 30 1012.5
20260905180943 99 0 0.0 2.6 0.00 0.00 0.00 30 1012.1
20260905180444 100 338 0.0 2.6 0.00 0.00 0.00 30 1012.5
20260905175944 100 23 0.0 2.6 0.00 0.00 0.00 30 1012.5
20260905175444 100 270 0.0 0.9 0.00 0.00 0.00 31 1012.5
20260905174945 100 180 0.0 0.9 0.00 0.00 0.00 30 1012.5
20260905174444 100 45 0.0 2.6 0.00 0.00 0.00 31 1012.5
20260905173944 100 23 0.0 2.6 0.00 0.00 0.00 31 1012.1
20260905173444 99 23 0.0 3.5 0.00 0.00 0.00 31 1012.1
20260905172943 98 338 0.9 3.5 0.00 0.00 0.00 34 1012.5
20260905172444 98 45 0.0 2.6 0.00 0.00 0.00 35 1012.1
20260905171943 97 68 0.0 3.5 0.00 0.00 0.00 35 1012.1
20260905171444 96 45 0.9 3.5 0.00 0.00 0.00 35 1012.5
20260905170944 96 90 0.0 1.7 0.00 0.00 0.00 35 1012.5
20260905170445 96 0 0.0 2.6 0.00 0.00 0.00 35 1012.5
20260905165944 96 23 0.0 3.5 0.00 0.00 0.00 35 1012.5
20260905165716 95 45 0.0 3.5 0.00 0.00 0.00 37 1012.5
20260905164944 95 23 0.0 0.9 0.00 0.00 0.00 37 1012.5
20260905164443 94 203 0.0 0.9 0.00 0.00 0.00 35 1012.1
20260905163943 94 180 0.0 3.5 0.00 0.00 0.00 37 1012.1
20260905163443 94 338 0.9 3.5 0.00 0.00 0.00 39 1012.5
20260905162943 93 23 0.9 3.5 0.00 0.00 0.00 40 1012.5
20260905162444 92 68 0.0 2.6 0.00 0.00 0.00 41 1012.5
20260905161945 91 180 0.0 1.7 0.00 0.00 0.00 41 1012.5
20260905161444 90 203 0.0 1.7 0.00 0.00 0.00 41 1012.1
20260905160945 90 248 0.0 1.7 0.00 0.00 0.00 41 1012.1
20260905160444 89 270 0.0 2.6 0.00 0.00 0.00 43 1012.5
20260905155943 89 158 0.0 2.6 0.00 0.00 0.00 44 1012.5
20260905155444 89 180 0.0 2.6 0.00 0.00 0.00 43 1012.5
20260905154943 88 248 0.0 0.9 0.00 0.00 0.00 45 1012.5
20260905154443 88 270 0.0 0.0 0.00 0.00 0.00 44 1012.5
20260905153944 88 23 0.0 0.9 0.00 0.00 0.00 45 1012.5
20260905153445 87 90 0.0 0.9 0.00 0.00 0.00 48 1012.1
20260905152945 87 45 0.0 0.0 0.00 0.00 0.00 48 1012.1
20260905152444 87 248 0.0 0.0 0.00 0.00 0.00 48 1012.1
20260905151944 87 225 0.0 0.0 0.00 0.00 0.00 46 1012.1
20260905151443 86 225 0.0 0.0 0.00 0.00 0.00 48 1012.1
20260905150943 86 225 0.0 0.0 0.00 0.00 0.00 50 1012.1
20260905150443 86 135 0.0 0.0 0.00 0.00 0.00 49 1012.1
20260905145943 85 203 0.0 0.0 0.00 0.00 0.00 49 1012.1
20260905145443 85 180 0.0 1.7 0.00 0.00 0.00 49 1012.1
20260905144944 85 315 0.0 1.7 0.00 0.00 0.00 50 1012.1
20260905144715 84 315 0.0 0.0 0.00 0.00 0.00 50 1012.1
20260905143944 84 45 0.0 0.0 0.00 0.00 0.00 51 1012.1
20260905143445 83 90 0.0 0.9 0.00 0.00 0.00 50 1012.1
20260905142945 83 315 0.0 2.6 0.00 0.00 0.00 50 1012.1
20260905142443 83 180 0.0 2.6 0.00 0.00 0.00 51 1011.8
20260905141943 83 180 0.0 1.7 0.00 0.00 0.00 51 1012.1
20260905141443 82 135 0.0 1.7 0.00 0.00 0.00 53 1011.8
20260905140943 82 203 0.0 0.0 0.00 0.00 0.00 53 1011.8
20260905140444 82 45 0.0 0.0 0.00 0.00 0.00 53 1011.8
20260905135945 82 23 0.0 0.0 0.00 0.00 0.00 53 1011.5
20260905135444 82 158 0.0 0.0 0.00 0.00 0.00 54 1011.8
20260905134944 82 23 0.0 0.0 0.00 0.00 0.00 53 1011.5
20260905134444 82 23 0.0 0.0 0.00 0.00 0.00 53 1011.5
20260905133943 82 68 0.0 0.0 0.00 0.00 0.00 55 1011.5
20260905133437 82 68 0.0 0.0 0.00 0.00 0.00 55 1011.5
20260905132925 82 68 0.0 0.0 0.00 0.00 0.00 54 1011.1
20260905132424 82 68 0.0 0.0 0.00 0.00 0.00 54 1011.1
20260905131925 82 90 0.0 0.0 0.00 0.00 0.00 51 1011.1
20260905131426 82 68 0.0 0.0 0.00 0.00 0.00 53 1011.1
20260905130925 82 90 0.0 0.0 0.00 0.00 0.00 51 1011.1
20260905130426 82 45 0.0 0.0 0.00 0.00 0.00 51 1011.1
20260905125926 82 225 0.0 0.0 0.00 0.00 0.00 50 1011.1
20260905125426 82 203 0.0 1.7 0.00 0.00 0.00 50 1011.1
20260905124926 82 0 0.0 1.7 0.00 0.00 0.00 51 1011.1
20260905124424 82 45 0.0 0.0 0.00 0.00 0.00 51 1011.1
20260905123925 82 0 0.0 0.0 0.00 0.00 0.00 51 1010.8
20260905123424 82 270 0.0 0.0 0.00 0.00 0.00 51 1010.8
20260905123157 82 270 0.0 0.0 0.00 0.00 0.00 50 1010.8
20260905122430 82 180 0.0 0.0 0.00 0.00 0.00 50 1010.8
20260905122426 82 270 0.0 0.0 0.00 0.00 0.00 50 1010.8
20260905121656 82 248 0.0 0.0 0.00 0.00 0.00 50 1010.8
20260905120926 82 338 0.0 0.0 0.00 0.00 0.00 50 1010.8
20260905120655 82 45 0.0 0.0 0.00 0.00 0.00 50 1010.8
20260905115924 83 203 0.0 0.0 0.00 0.00 0.00 50 1010.8
20260905115425 83 270 0.0 0.0 0.00 0.00 0.00 50 1010.8
20260905114924 83 203 0.0 0.0 0.00 0.00 0.00 51 1010.5
20260905114656 83 180 0.0 0.0 0.00 0.00 0.00 50 1010.5
20260905113925 83 45 0.0 0.0 0.00 0.00 0.00 50 1010.5
20260905113426 83 45 0.0 0.0 0.00 0.00 0.00 50 1010.5
20260905112925 83 23 0.0 0.0 0.00 0.00 0.00 50 1010.5
20260905112425 83 90 0.0 0.0 0.00 0.00 0.00 50 1010.5
20260905111925 83 338 0.0 0.0 0.00 0.00 0.00 50 1010.8
20260905111424 83 338 0.0 0.0 0.00 0.00 0.00 50 1010.5
20260905110924 83 338 0.0 0.0 0.00 0.00 0.00 48 1010.5
20260905110424 83 338 0.0 0.0 0.00 0.00 0.00 49 1010.5
20260905105925 83 248 0.0 0.0 0.00 0.00 0.00 49 1010.5
20260905105425 83 45 0.0 0.0 0.00 0.00 0.00 49 1010.5
20260905104926 83 23 0.0 0.0 0.00 0.00 0.00 49 1010.5
20260905104426 83 248 0.0 0.0 0.00 0.00 0.00 48 1010.5
20260905103925 84 248 0.0 0.0 0.00 0.00 0.00 46 1010.5
20260905103424 84 180 0.0 0.0 0.00 0.00 0.00 49 1010.5
20260905102924 84 113 0.0 0.0 0.00 0.00 0.00 49 1010.5
20260905102424 84 113 0.0 0.0 0.00 0.00 0.00 49 1010.0
20260905101924 84 113 0.0 0.0 0.00 0.00 0.00 49 1010.5
20260905101425 84 68 0.0 0.0 0.00 0.00 0.00 49 1010.5